Total_Precipitation_Accumulation
0.62 0.76 0.81 0.78 0.78 0.83 0.88 0.92 0.95 0.91 0.90 0.86 0.73 0.65 0.61 0.56 0.47 0.39 0.24 0.17 0.17 0.16 0.15 0.14 0.13 0.15 0.16 0.19 0.24 0.30 0.37 0.45 0.54 0.67 0.82 0.97 1.10 1.26
0.78 0.87 0.91 0.95 0.93 0.86 0.90 0.95 0.96 1.00 0.96 0.79 0.71 0.71 0.61 0.44 0.37 0.31 0.22 0.20 0.18 0.16 0.14 0.13 0.12 0.14 0.14 0.13 0.13 0.15 0.18 0.22 0.25 0.32 0.43 0.56 0.69 0.85
0.90 1.00 1.05 1.09 1.09 1.00 0.95 0.92 0.92 1.00 0.94 0.78 0.71 0.71 0.59 0.42 0.32 0.25 0.19 0.16 0.14 0.15 0.13 0.10 0.09 0.10 0.10 0.10 0.10 0.11 0.12 0.13 0.15 0.19 0.23 0.29 0.34 0.43
0.93 1.09 1.17 1.13 1.04 0.99 0.99 0.95 0.94 1.02 0.96 0.87 0.83 0.76 0.67 0.56 0.43 0.33 0.23 0.16 0.12 0.15 0.12 0.09 0.09 0.07 0.06 0.05 0.06 0.06 0.08 0.09 0.10 0.12 0.15 0.19 0.20 0.22
0.94 0.98 1.01 1.07 1.05 0.97 0.91 0.90 0.91 1.02 1.01 0.92 0.98 0.93 0.81 0.68 0.53 0.39 0.29 0.21 0.14 0.13 0.13 0.11 0.09 0.06 0.04 0.04 0.03 0.04 0.05 0.06 0.07 0.09 0.12 0.16 0.17 0.17
0.79 0.84 0.87 0.91 0.96 1.00 0.94 0.90 0.93 0.96 0.97 0.97 1.02 1.13 1.00 0.81 0.61 0.45 0.34 0.23 0.14 0.08 0.10 0.14 0.12 0.07 0.04 0.03 0.03 0.03 0.03 0.04 0.06 0.07 0.08 0.10 0.15 0.21
0.52 0.53 0.64 0.81 0.91 0.96 0.93 0.90 0.93 0.93 0.94 0.99 1.04 1.17 1.17 0.95 0.67 0.45 0.33 0.25 0.16 0.09 0.07 0.07 0.06 0.03 0.02 0.02 0.03 0.02 0.02 0.03 0.04 0.04 0.05 0.07 0.12 0.23
0.34 0.32 0.33 0.47 0.67 0.80 0.83 0.83 0.87 0.90 0.94 0.95 1.03 1.11 1.15 1.01 0.76 0.56 0.38 0.25 0.18 0.14 0.11 0.10 0.07 0.04 0.02 0.01 0.02 0.03 0.02 0.02 0.03 0.03 0.03 0.04 0.06 0.16
0.30 0.28 0.22 0.22 0.35 0.48 0.59 0.67 0.70 0.71 0.79 0.92 1.02 1.04 1.13 1.12 0.96 0.72 0.52 0.35 0.20 0.12 0.09 0.10 0.07 0.03 0.02 0.02 0.04 0.02 0.02 0.02 0.03 0.05 0.06 0.03 0.02 0.05
0.28 0.25 0.22 0.22 0.25 0.30 0.39 0.48 0.54 0.56 0.56 0.66 0.82 1.00 1.14 1.23 1.13 0.98 0.78 0.55 0.35 0.20 0.10 0.08 0.06 0.05 0.04 0.04 0.04 0.03 0.02 0.02 0.02 0.08 0.19 0.21 0.10 0.06
0.28 0.26 0.24 0.20 0.19 0.22 0.29 0.33 0.39 0.48 0.53 0.57 0.69 0.90 1.08 1.20 1.30 1.17 0.93 0.65 0.43 0.28 0.15 0.07 0.05 0.06 0.07 0.05 0.04 0.04 0.02 0.01 0.02 0.06 0.21 0.46 0.52 0.33
0.36 0.34 0.28 0.24 0.20 0.16 0.22 0.27 0.30 0.33 0.41 0.47 0.56 0.71 0.87 0.99 1.11 1.07 0.87 0.64 0.42 0.28 0.16 0.07 0.04 0.04 0.06 0.06 0.04 0.03 0.02 0.02 0.02 0.07 0.25 0.59 0.72 0.63
0.41 0.40 0.35 0.25 0.20 0.17 0.17 0.23 0.24 0.31 0.36 0.40 0.50 0.65 0.81 0.94 0.94 0.92 0.84 0.64 0.42 0.24 0.12 0.06 0.04 0.02 0.02 0.02 0.02 0.02 0.02 0.01 0.02 0.04 0.13 0.40 0.68 0.71
0.59 0.53 0.47 0.36 0.25 0.22 0.19 0.19 0.21 0.26 0.38 0.41 0.46 0.57 0.69 0.81 0.89 0.90 0.83 0.69 0.49 0.33 0.19 0.10 0.05 0.03 0.01 0.01 0.01 0.02 0.02 0.02 0.03 0.04 0.05 0.14 0.32 0.61
0.68 0.68 0.57 0.46 0.36 0.28 0.26 0.25 0.23 0.22 0.31 0.39 0.39 0.43 0.49 0.61 0.83 0.98 1.02 0.88 0.65 0.44 0.31 0.19 0.09 0.04 0.02 0.01 0.02 0.02 0.02 0.02 0.02 0.05 0.07 0.10 0.21 0.39
0.66 0.70 0.62 0.58 0.51 0.41 0.36 0.33 0.28 0.23 0.26 0.34 0.38 0.42 0.52 0.62 0.77 0.94 1.05 0.99 0.80 0.53 0.34 0.24 0.13 0.06 0.03 0.01 0.00 0.01 0.01 0.01 0.02 0.03 0.07 0.13 0.23 0.32
0.78 0.88 0.81 0.72 0.66 0.58 0.49 0.43 0.38 0.33 0.30 0.34 0.44 0.48 0.56 0.60 0.67 0.77 0.90 0.92 0.77 0.53 0.34 0.25 0.18 0.09 0.05 0.02 0.01 0.00 0.00 0.00 0.00 0.01 0.01 0.05 0.15 0.21
0.83 0.98 0.91 0.79 0.72 0.66 0.60 0.53 0.48 0.41 0.37 0.36 0.41 0.49 0.53 0.56 0.61 0.67 0.73 0.78 0.72 0.54 0.36 0.24 0.18 0.12 0.07 0.04 0.02 0.01 0.00 0.00 0.00 0.00 0.00 0.00 0.03 0.10
0.71 0.86 0.82 0.75 0.71 0.70 0.65 0.57 0.49 0.45 0.45 0.43 0.42 0.47 0.52 0.54 0.55 0.60 0.63 0.67 0.68 0.60 0.43 0.28 0.17 0.11 0.07 0.04 0.01 0.00 0.00 0.00 0.00 0.00 0.00 0.00 0.01 0.02
0.63 0.72 0.72 0.69 0.67 0.67 0.63 0.58 0.53 0.52 0.52 0.51 0.48 0.48 0.52 0.52 0.50 0.50 0.54 0.54 0.57 0.58 0.52 0.34 0.19 0.10 0.06 0.04 0.02 0.01 0.00 0.00 0.00 0.00 0.00 0.00 0.00 0.00
0.59 0.62 0.64 0.62 0.61 0.63 0.61 0.60 0.58 0.57 0.54 0.53 0.53 0.50 0.50 0.52 0.48 0.45 0.47 0.52 0.49 0.49 0.46 0.35 0.24 0.17 0.11 0.08 0.05 0.02 0.01 0.00 0.00 0.00 0.00 0.00 0.00 0.00
0.58 0.55 0.58 0.60 0.61 0.59 0.58 0.59 0.60 0.59 0.55 0.52 0.54 0.53 0.49 0.49 0.47 0.44 0.42 0.43 0.40 0.39 0.38 0.36 0.34 0.28 0.18 0.11 0.06 0.04 0.02 0.01 0.00 0.00 0.00 0.00 0.00 0.00
0.54 0.53 0.52 0.50 0.51 0.52 0.51 0.51 0.53 0.54 0.51 0.49 0.49 0.51 0.49 0.48 0.45 0.43 0.40 0.37 0.37 0.39 0.44 0.46 0.45 0.37 0.25 0.17 0.09 0.06 0.04 0.02 0.01 0.00 0.00 0.00 0.00 0.00